Terminal Aerodrome Forecast
Issued by NWS Amarillo, TX

Home | Current Version | Previous Version | Text Only | Print | Product List | Glossary On
Versions: 1 2 3 4 5 6 7 8 9 10 11 12 13 14 15 16 17 18 19 20
694
FTUS44 KAMA 281945 AAA
TAFDHT
TAF AMD
KDHT 281945Z 2820/2918 05015KT P6SM OVC005
     FM290200 03018KT 4SM -TSRA BR OVC004CB
     FM290600 03015G22KT 2SM -SHRA OVC004
     FM290800 03025G35KT 5SM -SHRA OVC004=

USA.gov is the U.S. government's official web portal to all federal, state and local government web resources and services.